Yosemite National Park, California, United States (95389)
Lat: 37.54N, Lon: 119.84W
Wx Zone: CAZ093
Local Info
Past Weather Observations for Saturday, November 22, 2014

NOTE: This archive is for the closest National Weather Service station to Yosemite National Park. Information may differ from the station used for current weather conditions.

Click here for Long-term Archive

Time Weather Temperature Dewpoint Humidity Pressure Winds Precip Visibility
23:53
Partly Cloudy
Fog And Mist
54°F / 12°C 50°F / 10°C 88% 30.18 in
(1022 mb)
NNW 15 mph
(NNW 24 kph)
- 2 1/2SM
23:41
Clear
Fog And Mist
54°F / 12°C 50°F / 10°C 88% 30.18 in
(1022 mb)
NNW 13.8 mph
(NNW 22 kph)
- 2 1/2SM
23:02
Clear
Fog And Mist
52°F / 11°C 50°F / 10°C 94% 30.18 in
(1022 mb)
NW 12.7 mph
(NW 20 kph)
- 3SM
22:53
Clear
Fog And Mist
50°F / 10°C 46°F / 8°C 88% 30.18 in
(1022 mb)
NW 9.2 mph
(NW 15 kph)
- 2 1/2SM
22:41
Clear
Fog And Mist
48°F / 9°C 46°F / 8°C 94% 30.18 in
(1022 mb)
NW 6.9 mph
(NW 11 kph)
- 2SM
22:31
Clear
Fog And Mist
48°F / 9°C 46°F / 8°C 94% 30.18 in
(1022 mb)
NW 5.8 mph
(NW 9 kph)
- 1 3/4SM
22:16
Clear
Fog And Mist
50°F / 10°C 48°F / 9°C 94% 30.18 in
(1022 mb)
NW 5.8 mph
(NW 9 kph)
- 2 1/2SM
22:07
Clear
Fog And Mist
48°F / 9°C 46°F / 8°C 94% 30.18 in
(1022 mb)
NW 4.6 mph
(NW 7 kph)
- 1 1/2SM
21:53
Clear
Fog And Mist
48°F / 9°C 46°F / 8°C 94% 30.15 in
(1021 mb)
NW 3.5 mph
(NW 6 kph)
- 3/4SM
21:46
Clear
Fog And Mist
50°F / 10°C 46°F / 8°C 88% 30.18 in
(1022 mb)
NW 4.6 mph
(NW 7 kph)
- 1 3/4SM
21:19
Partly Cloudy
Fog And Mist
52°F / 11°C 48°F / 9°C 88% 30.18 in
(1022 mb)
Calm - 3SM
20:53
Clear
Fog And Mist
50°F / 10°C 48°F / 9°C 94% 30.15 in
(1021 mb)
NNW 3.5 mph
(NNW 6 kph)
- 2 1/2SM
20:36
Clear
Fog And Mist
52°F / 11°C 48°F / 9°C 88% 30.15 in
(1021 mb)
NW 4.6 mph
(NW 7 kph)
- 3SM
20:24
Clear
Fog And Mist
50°F / 10°C 46°F / 8°C 88% 30.15 in
(1021 mb)
N 4.6 mph
(N 7 kph)
- 2SM
19:53
Clear
Fog And Mist
52°F / 11°C 48°F / 9°C 88% 30.15 in
(1021 mb)
NNW 4.6 mph
(NNW 7 kph)
- 3SM
18:53
Clear
Fog And Mist
52°F / 11°C 48°F / 9°C 88% 30.15 in
(1021 mb)
NNW 3.5 mph
(NNW 6 kph)
- 3SM
17:53
Clear
Fog And Mist
54°F / 12°C 52°F / 11°C 94% 30.12 in
(1020 mb)
Calm - 5SM
16:53
Clear
Hazy
55°F / 13°C 52°F / 11°C 88% 30.12 in
(1020 mb)
ESE 4.6 mph
(ESE 7 kph)
- 6SM
15:53
Clear
Hazy
59°F / 15°C 52°F / 11°C 77% 30.12 in
(1020 mb)
ESE 6.9 mph
(ESE 11 kph)
- 6SM
15:28
Partly Cloudy
59°F / 15°C 52°F / 11°C 77% 30.15 in
(1021 mb)
ESE 5.8 mph
(ESE 9 kph)
- 7SM
14:53
Overcast
59°F / 15°C 52°F / 11°C 77% 30.15 in
(1021 mb)
E 6.9 mph
(E 11 kph)
- 7SM
13:53
Overcast
Hazy
59°F / 15°C 52°F / 11°C 77% 30.12 in
(1020 mb)
ESE 10.4 mph
(ESE 17 kph)
- 5SM
12:53
Overcast
Hazy
57°F / 14°C 52°F / 11°C 82% 30.15 in
(1021 mb)
SE 10.4 mph
(SE 17 kph)
0.00 in
(0.00 mm)
3SM
12:46
Overcast
Light Rain
57°F / 14°C 52°F / 11°C 82% 30.12 in
(1020 mb)
SE 12.7 mph
(SE 20 kph)
0.00 in
(0.00 mm)
2 1/2SM
12:31
Overcast
Light Rain
57°F / 14°C 52°F / 11°C 82% 30.12 in
(1020 mb)
SE 15 mph
(SE 24 kph)
0.00 in
(0.00 mm)
2SM
12:13
Overcast
Light Rain
57°F / 14°C 52°F / 11°C 82% 30.12 in
(1020 mb)
SE 13.8 mph
(SE 22 kph)
0.00 in
(0.00 mm)
2SM
12:03
Overcast
Light Rain
57°F / 14°C 52°F / 11°C 82% 30.15 in
(1021 mb)
SE 11.5 mph
(SE 19 kph)
0.00 in
(0.00 mm)
1 3/4SM
11:53
Overcast
Light Rain
57°F / 14°C 52°F / 11°C 82% 30.15 in
(1021 mb)
SE 10.4 mph
(SE 17 kph)
0.01 in
(0.25 mm)
1 3/4SM
11:50
Overcast
Light Rain
57°F / 14°C 52°F / 11°C 82% 30.15 in
(1021 mb)
SE 9.2 mph
(SE 15 kph)
0.01 in
(0.25 mm)
2SM
11:43
Overcast
Light Rain
57°F / 14°C 52°F / 11°C 82% 30.15 in
(1021 mb)
SE 11.5 mph
(SE 19 kph)
0.01 in
(0.25 mm)
1 3/4SM
11:34
Overcast
Light Rain
55°F / 13°C 52°F / 11°C 88% 30.15 in
(1021 mb)
SE 10.4 mph
(SE 17 kph)
0.01 in
(0.25 mm)
1 1/2SM
10:53
Overcast
Light Rain
55°F / 13°C 50°F / 10°C 82% 30.15 in
(1021 mb)
SE 13.8 mph
(SE 22 kph)
0.02 in
(0.51 mm)
2 1/2SM
10:46
Overcast
Light Rain
55°F / 13°C 50°F / 10°C 82% 30.15 in
(1021 mb)
SE 15 mph
(SE 24 kph)
0.01 in
(0.25 mm)
3SM
10:16
Overcast
Light Rain
55°F / 13°C 48°F / 9°C 77% 30.18 in
(1022 mb)
SE 13.8 mph
(SE 22 kph)
0.01 in
(0.25 mm)
2 1/2SM
09:53
Overcast
Light Rain
55°F / 13°C 48°F / 9°C 77% 30.15 in
(1021 mb)
SE 16.1 mph
(SE 26 kph)
0.00 in
(0.00 mm)
3SM
08:53
Overcast
Hazy
54°F / 12°C 48°F / 9°C 82% 30.15 in
(1021 mb)
SE 15 mph
(SE 24 kph)
- 4SM
07:53
Overcast
Hazy
52°F / 11°C 46°F / 8°C 82% 30.15 in
(1021 mb)
SE 10.4 mph
(SE 17 kph)
- 3SM
06:53
Overcast
Fog And Mist
52°F / 11°C 46°F / 8°C 82% 30.15 in
(1021 mb)
SE 10.4 mph
(SE 17 kph)
- 4SM
05:53
Overcast
Fog And Mist
52°F / 11°C 46°F / 8°C 82% 30.15 in
(1021 mb)
SE 10.4 mph
(SE 17 kph)
- 4SM
04:53
Overcast
Hazy
52°F / 11°C 46°F / 8°C 82% 30.15 in
(1021 mb)
SE 10.4 mph
(SE 17 kph)
- 5SM
03:53
Overcast
Hazy
52°F / 11°C 46°F / 8°C 82% 30.15 in
(1021 mb)
SE 11.5 mph
(SE 19 kph)
- 5SM
02:53
Overcast
Fog And Mist
50°F / 10°C 46°F / 8°C 88% 30.18 in
(1022 mb)
SE 6.9 mph
(SE 11 kph)
- 4SM
01:53
Clear
Fog And Mist
50°F / 10°C 46°F / 8°C 88% 30.18 in
(1022 mb)
SE 8.1 mph
(SE 13 kph)
- 4SM
00:53
Mostly Cloudy
Fog And Mist
52°F / 11°C 46°F / 8°C 82% 30.18 in
(1022 mb)
SE 6.9 mph
(SE 11 kph)
- 5SM
Time Weather Temperature Dewpoint Humidity Pressure Winds Precip Visibility


Weather for websites

WeatherForYou.com, LLC is not responsible for any damages or problems caused by this service. Current weather conditions are obtained from the closest station including government and personal stations which may have varying degrees of accuracy. Weather forecasts are derived from the NOAA NDFD. Like all things, this site belongs to Jesus Christ... He just trusts me to maintain it. If you have any questions or comments email webmaster@weatherforyou.com

Copyright © 2014, WeatherForYou.com LLC. All rights reserved.